Location: Graswijk
(52.9667°N, 6.5500°E)
Time: 20:18:38
(UTC+00:00)

Cosmos 2279 Rocket - Pass Details

Date: 15 May 2026
Orbit: 963 x 978 km, 82.9° (Epoch: 6 June)

Event Time Altitude Azimuth Distance (km) Brightness Sun altitude
Exits shadow 22:16:39 25° 166° (SSE) 1,882 4.9 -16.3°
Maximum altitude 22:20:24 62° 94° (E) 1,098 4.1 -16.4°
Drops below altitude 10° 22:26:35 10° 15° (NNE) 2,740 7.2 -16.7°
Sets 22:29:08 0° 13° (NNE) 3,691 8.2 -16.8°
